This is the latest recevied weather packets stored in our database for station/object KE6LRO. If no packets are shown the sender has not sent any weather packets the latest 10 day(s).
| Time | Temp. | Humidity | Pressure | Rain* | Wind** | Luminosity | Snow |
|---|---|---|---|---|---|---|---|
| 1778141464 | 8.33° C | 82% | 1016.9 hPa | 0 mm | - | 0 W/m² | - |
| 1778141160 | 8.89° C | 82% | 1016.9 hPa | 0 mm | - | 0 W/m² | - |
| 1778140856 | 9.44° C | 78% | 1016.7 hPa | 0 mm | - | 0 W/m² | - |
| 1778140551 | 9.44° C | 78% | 1016.6 hPa | 0 mm | - | 0 W/m² | - |
| 1778140248 | 9.44° C | 80% | 1016.8 hPa | 0 mm | - | 0 W/m² | - |
| 1778139945 | 10° C | 78% | 1016.7 hPa | 0 mm | - | 0 W/m² | - |
| 1778139643 | 10° C | 78% | 1016.6 hPa | 0 mm | - | 0 W/m² | - |
| 1778139339 | 10° C | 75% | 1016.5 hPa | 0 mm | - | 0 W/m² | - |
| 1778139036 | 10.56° C | 74% | 1016.7 hPa | 0 mm | - | 0 W/m² | - |
| 1778138733 | 10.56° C | 75% | 1016.7 hPa | 0 mm | - | 0 W/m² | - |
| 1778138430 | 10.56° C | 73% | 1016.7 hPa | 0 mm | - | 0 W/m² | - |
| 1778138128 | 11.11° C | 74% | 1016.8 hPa | 0 mm | - | 0 W/m² | - |
| 1778137824 | 10.56° C | 77% | 1016.9 hPa | 0 mm | - | 0 W/m² | - |
| 1778137521 | 10.56° C | 76% | 1016.6 hPa | 0 mm | - | 0 W/m² | - |
| 1778137219 | 10.56° C | 73% | 1016.8 hPa | 0 mm | - | 0 W/m² | - |
| 1778136914 | 10.56° C | 75% | 1016.6 hPa | 0 mm | - | 0 W/m² | - |
| 1778136612 | 10.56° C | 75% | 1016.7 hPa | 0 mm | - | 0 W/m² | - |
| 1778136310 | 10.56° C | 75% | 1016.6 hPa | 0 mm | - | 0 W/m² | - |
| 1778136008 | 10.56° C | 75% | 1016.7 hPa | 0 mm | - | 0 W/m² | - |
| 1778135704 | 10.56° C | 72% | 1016.6 hPa | 0 mm | - | 0 W/m² | - |
| 1778135402 | 10.56° C | 72% | 1016.6 hPa | 0 mm | - | 0 W/m² | - |
| 1778135099 | 11.11° C | 74% | 1016.6 hPa | 0 mm | - | 0 W/m² | - |
| 1778134796 | 11.11° C | 71% | 1016.5 hPa | 0 mm | - | 0 W/m² | - |
| 1778134494 | 11.67° C | 71% | 1016.5 hPa | 0 mm | - | 0 W/m² | - |
| 1778134192 | 11.67° C | 71% | 1016.4 hPa | 0 mm | - | 0 W/m² | - |
* Rain latest hour (hover to see other rain measurements)
** Current wind speed in m/s (hover to see current wind gust speed)